Weather History for KWAL - August, 2013

Change the Weather History Date:

Friday, August 2, 2013

  Actual Average Record
Temperature  
Mean Temperature 80 °F 77 °F  
Max Temperature 89 °F 85 °F 97 °F (2006)
Min Temperature 70 °F 69 °F 57 °F (1992)
Degree Days  
Heating Degree Days 0    
Month to date heating degree days 0  
Since 1 June heating degree days 0  
Since 1 July heating degree days 0  
Cooling Degree Days 15    
Month to date cooling degree days 27  
Year to date cooling degree days 936  
Since 1 June cooling degree days 805  
Growing Degree Days 30 (Base 50)    
Moisture  
Dew Point 66 °F    
Average Humidity 65    
Maximum Humidity 87    
Minimum Humidity 43    
Precipitation  
Precipitation 0.00 in 0.15 in 1.53 in (2014)
Month to date precipitation 0.08 0.30  
Year to date precipitation 27.70 23.50  
Sea Level Pressure  
Sea Level Pressure 29.92 in    
Wind  
Wind Speed 7 mph (WSW)    
Max Wind Speed 17 mph    
Max Gust Speed 22 mph    
Visibility 8 miles    
Events      
T = Trace of Precipitation, MM = Missing Value Source: NWS Daily Summary

Daily Weather History Graph

Daily Weather History Graph

Search for Another Location

Airport or City:

Trip Planner

Search our weather history database for the weather conditions in past years. The results will help you decide how hot, cold, wet, or windy it might be!

Date:

Astronomy

Aug. 02, 2013 Rise Set
Actual Time 6:06 AM EDT 8:09 PM EDT
Civil Twilight 5:36 AM EDT 8:38 PM EDT
Nautical Twilight 5:01 AM EDT 9:13 PM EDT
Astronomical Twilight 4:22 AM EDT 9:52 PM EDT
Moon 2:25 AM EDT (8/2) 5:04 PM EDT (8/2)
Length of Visible Light 15h 01m
Length of Day
14h 03m
Waning Crescent, 16% of the Moon is Illuminated
Aug 2
Waning Crescent
Aug 6
New
Aug 14
First Quarter
Aug 20
Full
Aug 28
Last Quarter

Hourly Weather History & Observations

Time (EDT) Temp. Heat Index Dew Point Humidity Pressure Visibility Wind Dir Wind Speed Gust Speed Precip Events Conditions
12:54 AM 73.9 °F - 68.0 °F 82% 29.84 in 10.0 mi NW 3.5 mph - N/A   Clear
1:54 AM 73.9 °F - 68.0 °F 82% 29.84 in 10.0 mi NW 4.6 mph - N/A   Clear
2:47 AM 75.0 °F - 69.1 °F 82% 29.85 in 10.0 mi West 4.6 mph - N/A   Mostly Cloudy
2:54 AM 75.0 °F - 69.1 °F 82% 29.84 in 10.0 mi NW 3.5 mph - N/A   Scattered Clouds
3:32 AM 73.9 °F - 69.1 °F 85% 29.84 in 9.0 mi Calm Calm - N/A   Mostly Cloudy
3:39 AM 73.9 °F - 68.0 °F 82% 29.85 in 9.0 mi West 4.6 mph - N/A   Scattered Clouds
3:49 AM 73.4 °F - 69.8 °F 88% 29.85 in 9.0 mi NW 3.5 mph - N/A   Mostly Cloudy
3:54 AM 73.9 °F - 69.1 °F 85% 29.85 in 10.0 mi West 4.6 mph - N/A   Scattered Clouds
4:54 AM 73.0 °F - 66.9 °F 81% 29.87 in 7.0 mi East 3.5 mph - N/A   Clear
5:19 AM 72.0 °F - 66.9 °F 84% 29.89 in 2.5 mi SW 3.5 mph - N/A   Haze
5:26 AM 72.0 °F - 66.9 °F 84% 29.89 in 7.0 mi SW 4.6 mph - N/A   Clear
5:48 AM 71.6 °F - 66.2 °F 83% 29.90 in 1.8 mi Calm Calm - N/A   Haze
5:54 AM 70.0 °F - 64.9 °F 84% 29.89 in 1.0 mi Calm Calm - N/A   Haze
6:01 AM 70.0 °F - 64.9 °F 84% 29.90 in 0.8 mi Calm Calm - N/A   Haze
6:11 AM 71.1 °F - 64.9 °F 81% 29.90 in 0.2 mi Calm Calm - N/A   Haze
6:25 AM 71.1 °F - 66.0 °F 84% 29.91 in 1.0 mi West 3.5 mph - N/A   Haze
6:32 AM 71.1 °F - 66.0 °F 84% 29.91 in 1.5 mi West 3.5 mph - N/A   Haze
6:34 AM 71.1 °F - 66.0 °F 84% 29.91 in 4.0 mi West 4.6 mph - N/A   Haze
6:54 AM 73.0 °F - 66.9 °F 81% 29.90 in 10.0 mi WNW 4.6 mph - N/A   Clear
7:54 AM 75.9 °F - 68.0 °F 76% 29.92 in 10.0 mi NW 8.1 mph - N/A   Clear
8:54 AM 79.0 °F - 66.9 °F 66% 29.94 in 10.0 mi NW 5.8 mph - N/A   Clear
9:54 AM 82.0 °F 84.1 °F 66.0 °F 58% 29.96 in 10.0 mi NW 6.9 mph - N/A   Scattered Clouds
10:54 AM 84.0 °F 85.8 °F 64.9 °F 53% 29.96 in 10.0 mi WNW 4.6 mph - N/A   Clear
11:54 AM 87.1 °F 87.8 °F 63.0 °F 44% 29.96 in 10.0 mi Calm Calm - N/A   Clear
12:54 PM 86.0 °F 86.8 °F 63.0 °F 46% 29.96 in 10.0 mi Calm Calm - N/A   Scattered Clouds
1:54 PM 86.0 °F 88.8 °F 66.9 °F 53% 29.97 in 10.0 mi SSW 11.5 mph - N/A   Scattered Clouds
2:54 PM 86.0 °F 88.2 °F 66.0 °F 51% 29.96 in 10.0 mi SSW 12.7 mph - N/A   Mostly Cloudy
3:54 PM 84.9 °F 86.1 °F 64.0 °F 49% 29.96 in 10.0 mi SSW 15.0 mph - N/A   Clear
4:54 PM 86.0 °F 86.3 °F 62.1 °F 44% 29.96 in 10.0 mi SSW 11.5 mph - N/A   Clear
5:54 PM 82.9 °F 84.4 °F 64.0 °F 53% 29.96 in 10.0 mi SSW 12.7 mph - N/A   Clear
6:54 PM 81.0 °F 82.5 °F 64.0 °F 56% 29.96 in 10.0 mi SSW 9.2 mph - N/A   Clear
7:54 PM 78.1 °F - 66.0 °F 66% 29.96 in 10.0 mi SW 11.5 mph - N/A   Clear
8:54 PM 77.0 °F - 66.0 °F 69% 29.96 in 10.0 mi SW 8.1 mph - N/A   Clear
9:54 PM 75.9 °F - 68.0 °F 76% 29.97 in 10.0 mi SW 9.2 mph - N/A   Clear
10:54 PM 75.0 °F - 68.0 °F 79% 29.97 in 10.0 mi SSW 5.8 mph - N/A   Clear
11:54 PM 73.9 °F - 66.9 °F 79% 29.97 in 8.0 mi SSW 4.6 mph - N/A   Clear